Current Version              Previous Version:    01  02  03  04  05  06  07  08  09  10  11  12  13  14  15  16  17  18  19  20  21  22  23  24  25  26  27  28  29  30  
   31  32  33  34  35  36  37  38  39  40  41  42  43  44  45  46  47  48  49  50  51  52  53  54  55  56  57  58  59  60  

[Printable]
137
ASUS44 KFWD 020603
RWRTX
NORTH TEXAS HOURLY WEATHER ROUNDUP
NATIONAL WEATHER SERVICE FORT WORTH TX
100 AM CDT THU OCT 02 2014

NOTE: "FAIR" INDICATES FEW OR NO CLOUDS BELOW 12,000 FEET WITH NO
SIGNIFICANT WEATHER AND/OR OBSTRUCTIONS TO VISIBILITY.

TXZ118-119-020700-
DALLAS/FORT WORTH METROPLEX

CITY           SKY/WX    TMP DP  RH WIND       PRES   REMARKS
DFW AIRPORT    PTCLDY    82  69  64 S17       29.76S
6HR MIN TEMP:  82; 6HR MAX TEMP:  90;

DALLAS LOVE    PTCLDY    82  69  64 S17       29.77S
6HR MIN TEMP:  82; 6HR MAX TEMP:  90;

FTW MEACHAM    CLEAR     82  67  60 S14       29.76S
6HR MIN TEMP:  82; 6HR MAX TEMP:  90;

DAL-EXECUTIVE  CLEAR     82  69  64 S10G20    29.78S
6HR MIN TEMP:  82; 6HR MAX TEMP:  91;

FTW-ALLIANCE   PTCLDY    81  67  62 S15G23    29.75F
6HR MIN TEMP:  81; 6HR MAX TEMP:  88;

FTW-NAS-JRB    CLEAR     84  66  54 SE12      29.80S
6HR MIN TEMP:  84; 6HR MAX TEMP:  92;

FTW-SPINKS     CLEAR     80  68  65 S9G17     29.79S
6HR MIN TEMP:  80; 6HR MAX TEMP:  89;

ARLINGTON      CLEAR     81  68  64 SE12      29.77F
6HR MIN TEMP:  81; 6HR MAX TEMP:  90;

GRAND PRAIRIE  CLEAR     81  67  63 SE9       29.79S
6HR MIN TEMP:  81; 6HR MAX TEMP:  89;

ADDISON        CLEAR     83  67  60 S9        29.79S
6HR MIN TEMP:  83; 6HR MAX TEMP:  90;

MESQUITE       CLEAR     78  68  71 S9        29.79S
6HR MIN TEMP:  78; 6HR MAX TEMP:  89;

LANCASTER      CLEAR     78  66  67 SE5       29.80R
6HR MIN TEMP:  77; 6HR MAX TEMP:  89;

$$

TXZ091>094-102>105-117-120-121-131>134-020700-
NORTH CENTRAL TEXAS

CITY           SKY/WX    TMP DP  RH WIND       PRES   REMARKS
SHRMAN/DENISON CLEAR     80  66  62 SE14      29.77F
6HR MIN TEMP:  79; 6HR MAX TEMP:  86;

GAINESVILLE    PTCLDY    76  67  72 SE10      29.77F
6HR MIN TEMP:  76; 6HR MAX TEMP:  86;

BOWIE          MOCLDY    80  66  62 S13       29.75S
6HR MIN TEMP:  80; 6HR MAX TEMP:  87;

BRIDGEPORT     CLOUDY    81  62  52 S9G16     29.77S
6HR MIN TEMP:  81; 6HR MAX TEMP:  90;

DECATUR        PTCLDY    80  65  61 S13G18    29.77S
6HR MIN TEMP:  80; 6HR MAX TEMP:  87;

DENTON         CLEAR     81  67  62 S10       29.76S
6HR MIN TEMP:  81; 6HR MAX TEMP:  89;

MCKINNEY       CLEAR     78  67  68 S10       29.78S
6HR MIN TEMP:  78; 6HR MAX TEMP:  88;

GREENVILLE     CLEAR     77  70  78 S9        29.79F
ROCKWALL       CLEAR     78  71  78 S9        29.78S
6HR MIN TEMP:  78; 6HR MAX TEMP:  87;

TERRELL        CLEAR     80  72  76 S10       29.79F
6HR MIN TEMP:  79; 6HR MAX TEMP:  90;

WAXAHACHIE     CLEAR     79  70  74 S9        29.80S
6HR MIN TEMP:  78; 6HR MAX TEMP:  88;

CLEBURNE       CLEAR     79  72  78 S8        29.80S
GRANBURY       CLEAR     80  66  61 SE8       29.78S
6HR MIN TEMP:  80; 6HR MAX TEMP:  91;

$$

TXZ083>090-098>101-113>116-127>130-139>142-154-155-020700-
WESTERN NORTH TEXAS

CITY           SKY/WX    TMP DP  RH WIND       PRES   REMARKS
WICHITA FALLS  PTCLDY    83  66  56 S20G28    29.71R
6HR MIN TEMP:  83; 6HR MAX TEMP:  92;

WF-KICKAPOO    PTCLDY    82  64  55 S17G26    29.73R
6HR MIN TEMP:  82; 6HR MAX TEMP:  94;

VERNON         PTCLDY    76  68  75 SE7       29.72F
6HR MIN TEMP:  76; 6HR MAX TEMP:  97; 6HR PCP:  0.15;

ABILENE        CLEAR     81  63  54 S16       29.79R
6HR MIN TEMP:  81; 6HR MAX TEMP:  91;

ABILENE-DYESS  CLEAR     81  65  57 S18G26    29.77S
6HR MIN TEMP:  81; 6HR MAX TEMP:  91;

BRECKENRIDGE     N/A     82  64  54 S13G20    29.76R
6HR MIN TEMP:  82; 6HR MAX TEMP:  93;

MINERAL WELLS  PTCLDY    80  65  59 SE10      29.75S
6HR MIN TEMP:  80; 6HR MAX TEMP:  90;

STEPHENVILLE   CLEAR     76  65  67 S6        29.82S
6HR MIN TEMP:  76; 6HR MAX TEMP:  88;

COMANCHE       CLEAR     79  64  60 S12G18    29.80S
6HR MIN TEMP:  78; 6HR MAX TEMP:  89;

BROWNWOOD      CLEAR     77  66  69 S9        29.81R
COLEMAN        CLEAR     76  64  65 S9        29.81S
6HR MIN TEMP:  76; 6HR MAX TEMP:  92;

BRADY          CLEAR     77  66  69 S7        29.83S
$$

TXZ143>147-156>162-174-175-020700-
CENTRAL TEXAS

CITY           SKY/WX    TMP DP  RH WIND       PRES   REMARKS
WACO           CLEAR     80  71  74 S17       29.79S
6HR MIN TEMP:  80; 6HR MAX TEMP:  88;

WACO-MCGREGOR  CLEAR     79  66  65 S10       29.81S
6HR MIN TEMP:  79; 6HR MAX TEMP:  90;

HILLSBORO      CLEAR     80  69  67 S15       29.79S
6HR MIN TEMP:  80; 6HR MAX TEMP:  89;

CORSICANA      CLEAR     78  70  76 S10       29.81S
6HR MIN TEMP:  78; 6HR MAX TEMP:  89;

MEXIA          CLEAR     76  72  85 SE8       29.80F
6HR MIN TEMP:  76; 6HR MAX TEMP:  86;

HEARNE         PTCLDY    77  73  87 SE6       29.83S
6HR MIN TEMP:  77; 6HR MAX TEMP:  87;

CAMERON        CLEAR     78  74  86 S9        29.81F
6HR MIN TEMP:  78; 6HR MAX TEMP:  87;

TEMPLE         CLEAR     79  68  69 S18       29.80S
6HR MIN TEMP:  79; 6HR MAX TEMP:  86;

KILLEEN        CLEAR     79  70  73 SE13      29.80F
KILLEEN-SKYLRK CLEAR     79  66  65 S10       29.81S
6HR MIN TEMP:  79; 6HR MAX TEMP:  88;

FORT HOOD      CLEAR     80  71  74 SE9       29.81S
6HR MIN TEMP:  80; 6HR MAX TEMP:  89;

HAMILTON       CLEAR     77  64  64 S10G16    29.81S
6HR MIN TEMP:  77; 6HR MAX TEMP:  88;

LAMPASAS       CLEAR     77  69  76 S7        29.81S
6HR MIN TEMP:  77; 6HR MAX TEMP:  87;

$$

TXZ095>097-106>112-122>126-135>138-148>153-164>167-020700-
EAST TEXAS

CITY           SKY/WX    TMP DP  RH WIND       PRES   REMARKS
PARIS          CLEAR     73  64  73 SE9       29.81S
6HR MIN TEMP:  73; 6HR MAX TEMP:  84;

SULPHUR SPRNGS CLEAR     79  71  77 S10       29.81F
6HR MIN TEMP:  79; 6HR MAX TEMP:  88;

MOUNT PLEASANT CLEAR    N/A N/A N/A SE5       29.83S
MINEOLA        CLEAR     79  73  83 S7        29.82S
TYLER          CLEAR     77  73  87 S8        29.82S
6HR MIN TEMP:  77; 6HR MAX TEMP:  86;

LONGVIEW       CLEAR     76  72  87 S8        29.82F
6HR MIN TEMP:  76; 6HR MAX TEMP:  86;

MARSHALL       CLEAR     78  75  88 S6        29.86S
6HR MIN TEMP:  78; 6HR MAX TEMP:  89;

ATHENS         CLEAR     77  72  83 S8        29.81S
PALESTINE      CLEAR     78  74  87 SE7       29.84S
JACKSONVILLE   CLEAR     76  73  91 S8        29.86S
HENDERSON      CLEAR     76  73  91 S5        29.85S
6HR MIN TEMP:  76; 6HR MAX TEMP:  85;

NACOGDOCHES    MOCLDY    75  73  94 S8        29.86S
6HR MIN TEMP:  75; 6HR MAX TEMP:  82;

LUFKIN         CLOUDY    79  74  84 S6        29.86R
6HR MIN TEMP:  78; 6HR MAX TEMP:  83;

$$

SUPPLEMENTAL OBSERVATIONS (CENTRAL)

CITY           SKY/WX    TMP DP  RH WIND       PRES   REMARKS
$$

SUPPLEMENTAL OBSERVATIONS (WEST)

CITY           SKY/WX    TMP DP  RH WIND       PRES   REMARKS
$$

SUPPLEMENTAL OBSERVATIONS (EAST)

CITY           SKY/WX    TMP DP  RH WIND       PRES   REMARKS
$$

SUPPLEMENTAL OBSERVATIONS ARE A COLLECTION OF AUTOMATED INSTRUMENTS
THAT ARE MAINTAINED BY A VARIETY OF FEDERAL AND STATE AGENCIES.
CERTAIN ELEMENTS...SUCH AS HUMIDITY VALUES AND SUSTAINED WIND
SPEEDS...MAY BE APPROXIMATED.